Location: Newark
(41.9364°N, 2.8061°E)
Time: 13:50:42
(UTC+00:00)

A-11 Canister half - Pass Details

Date: 22 February 2020
Orbit: 1516 x 1683 km, 47.2° (Epoch: 06 April)

Event Time Altitude Azimuth Distance (km) Brightness Sun altitude
Rises 19:54:39 0° 289° (WNW) 4,853 12.9 -27.6°
Reaches altitude 10° 19:57:51 10° 291° (WNW) 3,844 12.0 -28.1°
Maximum altitude 20:07:38 74° 17° (NNE) 1,627 8.9 -29.9°
Enters shadow 20:09:45 58° 80° (E) 1,785 8.9 -30.3°
